Weather History for KHSB - December, 2013

Change the Weather History Date:

Wednesday, December 18, 2013

  Actual Average (KMWA) Record (KMWA)
Temperature  
Mean Temperature 34 °F -  
Max Temperature 47 °F 40 °F 69 °F (1984)
Min Temperature 21 °F 21 °F -1 °F (1989)
Degree Days  
Heating Degree Days 31    
Moisture  
Dew Point 24 °F    
Average Humidity 65    
Maximum Humidity 100    
Minimum Humidity 32    
Precipitation  
Precipitation 0.00 in - - ()
Sea Level Pressure  
Sea Level Pressure 30.21 in    
Wind  
Wind Speed 5 mph (SSW)    
Max Wind Speed 15 mph    
Max Gust Speed 18 mph    
Visibility 10 miles    
Events      
Averages and records for this station are not official NWS values.
T = Trace of Precipitation, MM = Missing Value Source: NWS Daily Summary

Daily Weather History Graph

Daily Weather History Graph

Search for Another Location

Airport or City:

Trip Planner

Search our weather history database for the weather conditions in past years. The results will help you decide how hot, cold, wet, or windy it might be!

Date:

Astronomy

Dec. 18, 2013 Rise Set
Actual Time 7:04 AM CST 4:37 PM CST
Civil Twilight 6:35 AM CST 5:06 PM CST
Nautical Twilight 6:02 AM CST 5:39 PM CST
Astronomical Twilight 5:30 AM CST 6:11 PM CST
Moon 6:07 PM CST (12/18) 7:45 AM CST (12/18)
Length of Visible Light 10h 31m
Length of Day
9h 32m
Full, 98% of the Moon is Illuminated
Dec 18
Full
Dec 25
Last Quarter
Jan 1
New
Jan 7
First Quarter
Jan 15
Full

Hourly Weather History & Observations

Time (CST) Temp. Windchill Dew Point Humidity Pressure Visibility Wind Dir Wind Speed Gust Speed Precip Events Conditions
12:15 AM 31.8 °F 24.6 °F 23.9 °F 73% 30.30 in 10.0 mi WNW 8.1 mph - N/A   Clear
12:35 AM 30.7 °F 24.9 °F 23.4 °F 74% 30.30 in 10.0 mi WNW 5.8 mph - N/A   Clear
12:55 AM 30.0 °F 24.1 °F 23.2 °F 76% 30.30 in 10.0 mi WNW 5.8 mph - N/A   Clear
1:15 AM 29.8 °F 26.3 °F 22.8 °F 75% 30.30 in 10.0 mi WNW 3.5 mph - N/A   Clear
1:35 AM 27.3 °F 22.0 °F 23.0 °F 84% 30.30 in 10.0 mi West 4.6 mph - N/A   Clear
1:55 AM 27.3 °F - 22.5 °F 82% 30.30 in 10.0 mi Calm Calm - N/A   Clear
2:15 AM 27.3 °F - 23.2 °F 84% 30.30 in 10.0 mi Calm Calm - N/A   Clear
2:35 AM 27.0 °F - 23.0 °F 85% 30.30 in 10.0 mi Calm Calm - N/A   Clear
2:55 AM 26.6 °F - 23.2 °F 87% 30.31 in 10.0 mi Calm Calm - N/A   Clear
3:15 AM 26.2 °F - 23.7 °F 90% 30.31 in 10.0 mi Calm Calm - N/A   Clear
3:35 AM 25.5 °F - 23.9 °F 94% 30.31 in 10.0 mi Calm Calm - N/A   Clear
3:55 AM 25.2 °F - 23.9 °F 95% 30.31 in 10.0 mi Calm Calm - N/A   Clear
4:15 AM 24.8 °F - 23.9 °F 96% 30.31 in 10.0 mi Calm Calm - N/A   Clear
4:35 AM 23.5 °F - 22.8 °F 97% 30.32 in 10.0 mi Calm Calm - N/A   Clear
4:55 AM 23.4 °F - 22.5 °F 96% 30.32 in 10.0 mi Calm Calm - N/A   Clear
5:15 AM 21.7 °F - 20.8 °F 96% 30.32 in 10.0 mi Calm Calm - N/A   Clear
5:35 AM 23.0 °F - 22.6 °F 99% 30.31 in 10.0 mi Calm Calm - N/A   Clear
5:55 AM 21.9 °F - 21.6 °F 99% 30.32 in 10.0 mi Calm Calm - N/A   Clear
6:15 AM 22.1 °F - 22.1 °F 100% 30.32 in 10.0 mi Calm Calm - N/A   Clear
6:35 AM 23.4 °F - 23.0 °F 99% 30.32 in 10.0 mi Calm Calm - N/A   Clear
6:55 AM 23.4 °F - 23.0 °F 99% 30.32 in 10.0 mi Calm Calm - N/A   Clear
7:15 AM 23.0 °F - 22.6 °F 99% 30.32 in 10.0 mi Calm Calm - N/A   Clear
7:35 AM 24.3 °F - 23.9 °F 99% 30.32 in 10.0 mi Calm Calm - N/A   Clear
7:55 AM 25.9 °F - 25.2 °F 97% 30.32 in 10.0 mi Calm Calm - N/A   Clear
8:15 AM 27.0 °F - 25.3 °F 94% 30.32 in 10.0 mi Calm Calm - N/A   Clear
8:35 AM 28.2 °F - 26.8 °F 94% 30.32 in 10.0 mi Calm Calm - N/A   Clear
8:55 AM 30.0 °F 26.5 °F 27.7 °F 91% 30.33 in 10.0 mi SW 3.5 mph - N/A   Clear
9:15 AM 32.0 °F 28.7 °F 27.3 °F 83% 30.32 in 10.0 mi SSW 3.5 mph - N/A   Clear
9:35 AM 34.2 °F 30.0 °F 27.1 °F 75% 30.32 in 10.0 mi SSW 4.6 mph - N/A   Clear
9:55 AM 36.5 °F 31.0 °F 23.5 °F 59% 30.32 in 10.0 mi SSW 6.9 mph - N/A   Clear
10:15 AM 37.8 °F 32.5 °F 22.6 °F 54% 30.30 in 10.0 mi South 6.9 mph - N/A   Clear
10:35 AM 39.0 °F 32.8 °F 21.6 °F 50% 30.30 in 10.0 mi South 9.2 mph - N/A   Clear
10:55 AM 39.9 °F 33.9 °F 21.6 °F 48% 30.30 in 10.0 mi SSW 9.2 mph - N/A   Clear
11:15 AM 40.6 °F 36.0 °F 23.7 °F 51% 30.28 in 10.0 mi SSW 6.9 mph - N/A   Clear
11:35 AM 41.5 °F 35.9 °F 23.0 °F 48% 30.27 in 10.0 mi SSW 9.2 mph - N/A   Clear
11:55 AM 41.9 °F 36.3 °F 23.2 °F 47% 30.27 in 10.0 mi SSW 9.2 mph - N/A   Clear
12:15 PM 42.8 °F 37.5 °F 22.6 °F 45% 30.25 in 10.0 mi SSW 9.2 mph - N/A   Clear
12:35 PM 44.1 °F 38.1 °F 19.8 °F 38% 30.24 in 10.0 mi SSW 11.5 mph - N/A   Clear
12:55 PM 44.8 °F 40.4 °F 21.0 °F 39% 30.22 in 10.0 mi South 8.1 mph - N/A   Clear
1:15 PM 45.5 °F 40.3 °F 19.2 °F 35% 30.20 in 10.0 mi South 10.4 mph - N/A   Clear
1:35 PM 45.9 °F 40.8 °F 22.8 °F 40% 30.19 in 10.0 mi South 10.4 mph - N/A   Clear
1:55 PM 46.4 °F 40.7 °F 20.7 °F 36% 30.18 in 10.0 mi South 12.7 mph - N/A   Clear
2:15 PM 46.8 °F - 20.7 °F 36% 30.17 in 10.0 mi South 10.4 mph - N/A   Clear
2:35 PM 47.7 °F - 19.2 °F 32% 30.16 in 10.0 mi South 13.8 mph 17.3 mph N/A   Clear
2:55 PM 47.5 °F - 19.8 °F 33% 30.16 in 10.0 mi South 10.4 mph 16.1 mph N/A   Clear
3:15 PM 47.3 °F - 21.0 °F 35% 30.15 in 10.0 mi South 10.4 mph - N/A   Clear
3:35 PM 46.6 °F - 21.6 °F 37% 30.15 in 10.0 mi South 11.5 mph - N/A   Clear
3:55 PM 46.2 °F 41.7 °F 20.7 °F 36% 30.14 in 10.0 mi South 9.2 mph - N/A   Clear
4:15 PM 44.2 °F 39.2 °F 23.9 °F 45% 30.14 in 10.0 mi South 9.2 mph - N/A   Clear
4:35 PM 42.1 °F 37.1 °F 25.0 °F 51% 30.13 in 10.0 mi South 8.1 mph - N/A   Clear
4:55 PM 41.4 °F 36.2 °F 25.5 °F 53% 30.12 in 10.0 mi South 8.1 mph - N/A   Clear
5:15 PM 40.6 °F 34.8 °F 25.5 °F 55% 30.11 in 10.0 mi South 9.2 mph - N/A   Clear
5:35 PM 40.8 °F 35.6 °F 25.3 °F 54% 30.10 in 10.0 mi South 8.1 mph - N/A   Clear
5:55 PM 40.8 °F 35.0 °F 25.7 °F 55% 30.10 in 10.0 mi South 9.2 mph - N/A   Clear
6:15 PM 41.7 °F 36.1 °F 25.5 °F 53% 30.09 in 10.0 mi South 9.2 mph - N/A   Clear
6:35 PM 43.3 °F 38.1 °F 24.8 °F 48% 30.09 in 10.0 mi South 9.2 mph - N/A   Clear
6:55 PM 44.1 °F 38.6 °F 25.0 °F 47% 30.09 in 10.0 mi South 10.4 mph - N/A   Clear
7:15 PM 44.8 °F 39.0 °F 25.0 °F 46% 30.09 in 10.0 mi South 11.5 mph - N/A   Clear
7:35 PM 44.4 °F 39.0 °F 25.7 °F 48% 30.09 in 10.0 mi South 10.4 mph 16.1 mph N/A   Clear
7:55 PM 43.9 °F 38.8 °F 26.4 °F 50% 30.08 in 10.0 mi South 9.2 mph - N/A   Clear
8:15 PM 44.1 °F 39.0 °F 26.6 °F 50% 30.08 in 10.0 mi South 9.2 mph - N/A   Clear
8:35 PM 44.8 °F 39.9 °F 27.0 °F 50% 30.07 in 10.0 mi South 9.2 mph - N/A   Clear
8:55 PM 44.2 °F 39.2 °F 27.9 °F 53% 30.07 in 10.0 mi SSW 9.2 mph - N/A   Clear
9:15 PM 44.8 °F 39.4 °F 28.2 °F 52% 30.07 in 10.0 mi SSW 10.4 mph 16.1 mph N/A   Clear
9:35 PM 44.6 °F 38.4 °F 28.8 °F 54% 30.07 in 10.0 mi SSW 12.7 mph - N/A   Clear
9:55 PM 44.6 °F 38.8 °F 29.1 °F 55% 30.07 in 10.0 mi SSW 11.5 mph - N/A   Clear
10:15 PM 44.2 °F 38.4 °F 29.3 °F 56% 30.07 in 10.0 mi SSW 11.5 mph 17.3 mph N/A   Clear
10:35 PM 44.6 °F 37.8 °F 30.2 °F 57% 30.06 in 10.0 mi SSW 15.0 mph 18.4 mph N/A   Clear
10:55 PM 44.8 °F 39.0 °F 31.1 °F 59% 30.06 in 10.0 mi SSW 11.5 mph - N/A   Clear
11:15 PM 44.6 °F 38.8 °F 31.8 °F 61% 30.06 in 10.0 mi SSW 11.5 mph - N/A   Clear
11:35 PM 44.8 °F 39.0 °F 32.0 °F 61% 30.05 in 10.0 mi SSW 11.5 mph 18.4 mph N/A   Clear
11:55 PM 44.4 °F 38.2 °F 32.0 °F 62% 30.04 in 10.0 mi SSW 12.7 mph 16.1 mph N/A   Clear